SCP
0 0 0 0 0 0 0 0 0 0 0 0 0 0 0 0 0 0 0 0 0 0 0 0 -0 0 0 -0 0 0 0 0 0 0 0 0 0 0 -0 -0 -0 0 -0
0 0 0 0 0 0 0 0 0 0 0 0 0 0 0 0 0 0 0 0 -0 -0 0 0 -0 0 0 0 0 0 0 0 0 0 0 0 0 0 0 0 -0 -0 -0
-0 -0 0 0 0 0 0 0 0 0 -0 -0 0 0 0 0 0 0 0 0 0 0 0 0 0 0 0 0 0 0 0 0 0 0 0 0 0 0 0 -0 -0 -0 -0
-0 0 0 -0 0 0 0 0 0 0 0 0 0 0 0 0 0 0 0 0 0 0 0 0 0 0 0 0 0 0 0 0 0 0 0 0 0 0 -0 -0 -0 -0 -0
-0 -0 -0 -0 0 0 0 0 0 0 0 0 0 0 0 0 0 0 0 0 0 0 0 0 0 0 0 0 0 0 0 0 0 0 0 0 0 0 0 0 0 0 0
-0 -0 -0 -0 0 0 0 0 0 0 0 0 0 0 0 0 0 0 0 0 0 0 0 0 0 0 0 0 0 0 0 0 0 0 0 0 0 0 0 0 0 0 0
0 0 0 -0 0 0 0 0 0 0 0 0 0 0 0 0 0 0 0 0 0 0 0 0 0 0 0 0 0 0 0 0 0 0 0 0 0 0 0 0 0 0 0
0 0 0 0 0 0 0 0 0 0 0 0 0 0 0 0 0 0 -0 0 0 0 0 0 0 0 0 0 0 0 0 0 0 0 0 0 0 0 0 0 0 0 0
0 0 0 0 0 0 0 0 0 0 0 0 0 0 0 0 0 -0 -0 0 0 0 0 0 0 0 0 0 0 0 0 0 0 0 0 0 0 0 0 0 0 0 0
0 0 0 0 0 0 0 0 0 0 0 0 0 0 0 0 -0 -0 -0 0 0 0 0 0 0 0 0 0 0 0 0 0 0 0 0 0 0 0 0 0 0 0 0
0 0 0 0 0 0 0 0 0 0 0 0 0 0 0 0 0 0 0 0 0 0 0 0 0 0 0 0 0 0 0 0 0 0 -0 -0 -0 -0 0 0 0 0 0
0 0 0 0 0 0 0 0 0 0 0 0 0 0 0 0 0 0 0 0 0 0 0 0 0 0 0 0 0 0 0 0 0 0 0 -0 -0 -0 -0 0 0 0 0
0 0 0 0 0 0 0 0 0 0 0 0 0 0 0 0 0 0 0 0 0 0 0 0 0 0 0 0 0 0 0 0 0 0 0 0 0 0 0 0 0 0 0
0 0 0 0 0 0 0 0 0 0 0 0 0 0 0 0 0 0 0 0 0 0 0 0 0 0 0 0 0 0 0 0 0 0 0 0 -0 -0 -0 -0 0 0 -0
0 0 0 0 0 0 0 0 0 0 0 0 0 0 0 0 0 0 0 0 0 0 0 0 0 0 0 0 0 0 0 0 0 0 0 0 0 0 -0 -0 -0 0 0
0 0 0 0 0 0 0 0 0 0 0 0 0 0 0 0 0 0 0 0 0 0 0 0 0 0 0 0 0 0 0 0 0 0 0 0 0 0 0 0 0 0 0
0 0 0 0 0 0 0 0 0 0 0 0 0 0 0 0 0 0 0 0 0 0 0 0 0 0 0 0 0 0 0 0 0 0 0 0 0 0 0 0 0 0 0
0 0 0 0 0 0 0 0 0 0 0 0 0 0 0 0 0 0 0 0 0 0 0 0 0 0 0 0 0 0 0 0 0 0 0 0 0 0 0 0 0 0 0
0 0 0 0 0 0 0 0 0 0 0 0 0 0 0 0 0 0 0 0 0 0 0 0 0 0 0 0 0 0 0 0 0 0 0 0 0 0 0 0 0 0 0
0 0 0 0 0 0 0 0 0 0 0 0 0 0 0 0 0 0 0 0 0 0 0 0 0 0 0 -0 -0 0 -0 -0 0 0 0 0 0 0 0 0 0 0 0
0 0 0 0 0 0 0 0 0 0 0 0 0 0 0 0 0 0 0 0 0 0 0 0 0 0 0 0 0 0 -0 -0 -0 -0 0 0 0 0 0 0 0 0 0
0 0 0 0 0 0 0 0 0 0 0 0 0 0 0 0 0 0 0 0 0 0 0 0 0 0 0 0 0 0 0 0 0 0 -0 -0 0 0 0 0 0 0 0
0 0 0 0 0 0 0 0 0 0 0 0 0 0 0 0 0 0 0 0 0 0 0 0 0 0 0 0 0 0 0 0 0 0 0 0 0 0 0 0 0 0 0
0 0 0 0 0 0 0 0 0 0 0 0 0 0 0 0 0 0 0 0 0 0 0 0 0 0 0 0 0 0 0 0 0 0 0 0 0 0 0 0 0 -0 -0
0 0 0 0 0 0 0 0 0 0 0 0 0 0 0 0 0 0 0 0 0 0 0 0 0 0 0 0 0 0 0 0 0 0 0 0 -0 -0 -0 0 0 -0 -0
0 0 0 0 0 0 0 0 0 0 0 0 0 0 0 0 0 0 0 0 0 0 0 0 0 0 0 0 0 0 0 0 0 0 0 0 -0 -0 0 -0 -0 -0 -0
Wind_Speed_500mb
10 9 13 13 10 11 13 19 22 20 25 24 22 20 24 26 23 22 24 24 22 20 18 16 12 9 11 13 15 13 11 7 6 8 11 15 15 18 20 20 19 16 16
12 7 9 9 7 8 13 20 26 26 28 30 28 25 25 26 24 25 23 22 24 23 19 17 13 9 10 12 12 13 14 13 13 13 17 16 18 17 18 19 15 17 19
12 5 9 10 9 12 16 19 25 30 32 33 32 31 31 30 27 23 22 21 19 21 21 18 15 10 8 8 9 12 15 16 16 16 15 19 17 15 14 16 18 20 11
5 11 11 9 10 15 21 25 30 32 33 33 32 32 30 29 27 25 22 19 17 16 16 16 15 12 8 6 5 9 12 16 20 18 16 14 14 13 12 13 16 7 5
4 8 12 9 13 19 25 30 32 31 31 30 32 33 33 30 27 26 23 21 17 14 13 12 12 10 7 5 2 5 8 15 18 17 16 15 10 5 9 15 13 6 10
4 8 14 15 23 26 30 28 28 29 28 27 27 27 27 28 25 25 24 19 17 15 12 9 8 6 4 3 1 2 5 14 14 15 16 14 11 11 9 17 10 10 16
5 16 19 21 26 28 28 29 29 27 25 24 22 20 18 19 19 16 18 17 16 12 10 8 4 1 1 4 3 4 9 15 16 12 15 17 17 19 18 19 18 21 23
15 21 20 23 27 30 30 29 26 22 18 17 16 13 15 15 16 13 13 11 10 8 7 5 2 2 4 8 6 8 9 15 19 18 21 23 24 26 25 25 26 21 23
19 22 26 27 30 30 26 26 23 18 13 9 6 6 6 7 7 7 8 5 3 4 2 2 3 4 4 8 10 10 17 17 23 26 24 26 30 29 30 32 27 24 26
26 24 27 29 29 30 29 21 15 9 9 6 5 5 5 6 8 8 10 11 8 5 7 4 5 2 1 4 11 8 20 19 23 30 32 31 34 31 31 31 30 27 30
35 31 31 34 35 33 26 17 9 4 2 4 7 6 6 4 4 7 8 7 8 8 9 10 12 13 5 6 7 2 13 21 23 24 34 29 37 43 30 33 34 31 35
41 39 36 34 33 31 23 15 11 4 4 7 11 13 15 15 13 11 9 8 5 5 9 10 11 14 12 8 7 10 12 16 22 28 27 29 23 33 40 31 37 36 33
52 48 45 42 35 28 21 16 12 9 8 11 15 18 20 19 17 15 14 12 13 12 8 6 11 15 16 14 12 11 14 16 16 21 25 27 27 25 30 33 40 39 38
52 52 53 50 50 39 28 21 15 12 13 15 19 20 19 18 17 15 13 12 12 13 15 15 12 11 16 21 22 20 20 19 16 13 18 26 32 38 40 39 41 43 40
53 54 52 51 48 40 32 26 20 16 16 18 21 21 20 19 18 17 16 13 12 13 14 15 15 14 13 14 20 28 27 24 22 22 24 25 34 39 46 48 42 43 45
56 55 56 53 47 41 36 30 23 21 21 22 22 22 21 21 19 17 15 14 13 14 16 19 22 24 23 22 19 21 28 34 33 34 35 36 39 40 42 41 45 45 48
62 56 58 56 49 44 39 33 26 26 26 26 25 24 22 21 19 18 15 14 17 19 21 23 24 26 26 26 25 23 25 28 36 44 46 46 47 51 49 48 46 54 55
63 62 59 58 53 49 43 35 30 29 28 28 27 25 24 22 18 14 13 13 16 19 23 25 28 31 32 35 37 36 33 31 32 37 43 52 55 55 59 57 52 50 58
69 65 63 60 56 52 46 38 34 32 30 29 27 24 23 20 16 14 13 15 17 21 26 29 33 36 37 38 41 42 43 41 39 38 42 48 54 59 58 56 56 55 65
73 68 64 60 57 54 48 41 37 34 32 30 27 23 21 17 13 13 13 14 17 23 26 27 31 32 37 37 42 47 50 41 36 49 45 53 60 58 64 63 58 57 66
78 76 71 68 63 59 52 44 40 36 33 31 27 23 20 15 13 12 13 14 19 25 26 29 33 35 40 42 51 62 58 26 64 21 49 53 59 67 67 68 66 63 55
87 83 77 71 67 61 52 46 41 37 35 31 26 23 21 17 16 13 13 15 19 25 25 29 32 38 44 41 49 54 41 69 45 78 66 70 61 64 68 62 67 65 62
96 91 82 75 71 63 56 50 45 41 36 31 25 23 21 20 17 15 14 18 24 24 26 29 31 34 44 40 45 44 35 30 87 73 71 75 78 68 68 61 60 64 71
100 88 80 74 71 67 62 55 47 41 35 28 24 22 22 20 17 16 18 24 25 25 26 29 33 36 35 44 50 45 48 54 65 81 88 85 82 76 73 70 68 68 78
99 87 79 74 71 68 63 55 48 42 33 29 24 23 21 18 19 19 24 27 25 25 28 32 33 40 44 46 43 51 59 60 64 59 82 84 85 76 89 87 90 76 70
98 86 78 73 71 67 64 58 51 43 35 30 25 22 20 20 21 23 28 27 26 25 28 31 41 42 43 43 47 52 53 61 67 67 73 79 81 108 96 89 77 64 59
Wind_Direction_500mb
103 75 58 26 26 36 41 48 62 83 68 78 74 62 56 56 56 54 54 58 56 56 60 65 54 71 72 95 91 84 80 93 107 119 127 138 141 139 129 124 120 120 115
134 103 65 38 26 46 47 58 66 77 71 71 71 67 60 58 58 54 49 45 47 49 56 55 57 83 68 78 83 79 85 100 110 123 135 139 140 136 135 132 124 126 116
132 82 78 66 65 80 79 85 85 84 77 72 68 64 61 59 60 60 60 58 52 45 40 40 48 70 87 71 78 83 94 105 116 124 131 130 130 131 133 141 135 135 120
94 125 86 82 97 100 102 102 98 94 87 81 77 74 69 67 65 63 61 62 63 56 52 49 44 47 76 88 96 84 101 117 122 130 134 131 131 143 148 152 152 129 131
34 113 96 108 110 108 109 102 96 89 83 78 75 72 69 65 63 59 56 54 56 60 56 54 58 51 44 45 114 123 107 139 137 144 150 148 161 177 191 175 195 223 269
278 136 128 125 124 119 112 105 102 99 96 92 89 83 75 70 64 61 61 57 51 50 50 51 54 60 45 27 5 231 177 173 174 176 173 176 209 224 222 205 230 275 284
192 149 134 130 129 127 124 119 113 106 96 87 81 77 71 69 65 54 58 57 58 50 47 50 38 47 286 285 281 245 225 213 213 219 218 214 230 243 253 238 259 280 283
149 143 148 146 143 139 134 125 119 107 93 83 77 62 59 47 45 36 36 48 47 51 49 44 55 304 270 260 263 258 259 252 243 252 255 257 246 243 256 260 277 277 282
150 145 151 149 150 144 142 142 132 121 105 86 61 50 28 25 10 4 0 357 356 355 317 5 24 11 287 258 266 270 263 265 252 252 259 262 256 251 257 264 271 282 286
161 162 158 156 159 166 164 160 143 118 95 72 33 4 352 336 328 326 323 322 314 291 290 308 309 51 42 215 247 277 288 293 266 252 254 272 257 254 263 263 277 284 289
178 182 182 174 175 178 175 176 171 139 78 28 32 37 28 14 347 322 318 308 304 295 297 307 307 314 332 339 205 170 277 286 292 264 269 274 258 251 261 259 274 275 290
190 195 200 191 187 188 189 197 210 252 323 356 13 14 16 17 10 11 0 352 333 288 273 278 272 283 304 297 265 216 225 274 287 291 280 283 269 245 252 263 252 279 279
201 200 201 210 212 209 211 221 233 269 313 345 357 2 1 355 355 357 358 354 352 353 345 307 287 277 269 268 267 264 250 245 264 284 286 290 273 262 250 278 254 270 275
212 211 209 209 218 222 223 230 245 281 311 329 342 346 342 337 341 342 345 347 350 350 352 349 345 322 294 287 283 276 277 285 276 274 282 281 280 260 269 279 263 257 266
218 221 216 214 214 217 222 231 249 275 294 313 325 325 324 327 331 337 336 337 340 342 341 341 341 338 324 303 283 279 277 275 270 259 260 260 265 276 278 277 253 253 260
222 224 221 216 215 217 223 233 250 271 289 303 308 306 311 318 320 318 316 323 333 340 345 345 343 340 338 330 318 300 285 274 266 264 260 260 259 265 276 277 255 255 256
225 222 220 220 220 222 226 234 247 267 281 291 295 298 305 310 310 307 314 328 340 344 345 344 343 339 333 328 319 307 298 288 276 267 264 267 267 263 262 265 271 253 254
225 223 221 223 226 228 231 236 247 263 275 283 289 299 306 308 305 309 322 330 335 338 341 343 342 343 341 335 330 325 317 304 295 290 282 268 266 265 266 260 263 257 252
226 225 223 225 227 230 233 239 251 263 271 276 284 294 302 304 307 318 324 331 339 347 347 347 347 346 345 340 338 335 327 320 310 301 294 284 270 265 264 265 259 256 248
226 225 228 230 230 230 233 240 250 259 266 272 278 287 289 298 298 308 315 324 337 346 344 343 342 344 343 343 340 336 335 339 330 321 304 291 287 278 268 262 263 255 255
225 224 224 228 229 230 232 237 247 256 262 265 271 279 281 291 288 295 304 327 339 336 336 339 336 340 346 345 342 338 342 332 336 337 314 300 289 286 279 270 263 262 260
226 226 227 230 231 232 234 240 247 253 256 258 265 272 279 282 278 293 313 325 324 320 327 331 335 334 336 340 340 342 339 329 324 329 323 319 311 296 292 284 271 263 254
227 229 231 232 233 234 237 239 244 247 251 253 261 269 275 270 275 285 297 304 304 307 315 320 325 324 324 328 330 331 334 318 323 322 317 315 317 306 296 299 285 267 253
228 229 232 233 234 235 235 238 242 248 250 253 260 265 261 261 266 269 280 290 296 304 310 312 313 317 319 315 315 317 313 313 313 311 313 311 310 305 301 295 302 287 262
228 227 229 230 233 234 234 237 241 245 245 250 255 257 257 253 257 269 282 294 296 299 303 307 316 312 307 306 310 312 312 310 310 305 301 307 311 304 301 301 301 293 274
227 224 225 227 230 233 232 235 240 242 244 250 256 259 256 255 263 278 290 296 300 302 309 318 315 318 318 313 310 307 305 305 305 305 300 301 302 304 300 299 297 288 277
Wind_Speed_850mb
10 9 13 13 10 11 13 19 22 20 25 24 22 20 24 26 23 22 24 24 22 20 18 16 12 9 11 13 15 13 11 7 6 8 11 15 15 18 20 20 19 16 16
12 7 9 9 7 8 13 20 26 26 28 30 28 25 25 26 24 25 23 22 24 23 19 17 13 9 10 12 12 13 14 13 13 13 17 16 18 17 18 19 15 17 19
12 5 9 10 9 12 16 19 25 30 32 33 32 31 31 30 27 23 22 21 19 21 21 18 15 10 8 8 9 12 15 16 16 16 15 19 17 15 14 16 18 20 11
5 11 11 9 10 15 21 25 30 32 33 33 32 32 30 29 27 25 22 19 17 16 16 16 15 12 8 6 5 9 12 16 20 18 16 14 14 13 12 13 16 7 5
4 8 12 9 13 19 25 30 32 31 31 30 32 33 33 30 27 26 23 21 17 14 13 12 12 10 7 5 2 5 8 15 18 17 16 15 10 5 9 15 13 6 10
4 8 14 15 23 26 30 28 28 29 28 27 27 27 27 28 25 25 24 19 17 15 12 9 8 6 4 3 1 2 5 14 14 15 16 14 11 11 9 17 10 10 16
5 16 19 21 26 28 28 29 29 27 25 24 22 20 18 19 19 16 18 17 16 12 10 8 4 1 1 4 3 4 9 15 16 12 15 17 17 19 18 19 18 21 23
15 21 20 23 27 30 30 29 26 22 18 17 16 13 15 15 16 13 13 11 10 8 7 5 2 2 4 8 6 8 9 15 19 18 21 23 24 26 25 25 26 21 23
19 22 26 27 30 30 26 26 23 18 13 9 6 6 6 7 7 7 8 5 3 4 2 2 3 4 4 8 10 10 17 17 23 26 24 26 30 29 30 32 27 24 26
26 24 27 29 29 30 29 21 15 9 9 6 5 5 5 6 8 8 10 11 8 5 7 4 5 2 1 4 11 8 20 19 23 30 32 31 34 31 31 31 30 27 30
35 31 31 34 35 33 26 17 9 4 2 4 7 6 6 4 4 7 8 7 8 8 9 10 12 13 5 6 7 2 13 21 23 24 34 29 37 43 30 33 34 31 35
41 39 36 34 33 31 23 15 11 4 4 7 11 13 15 15 13 11 9 8 5 5 9 10 11 14 12 8 7 10 12 16 22 28 27 29 23 33 40 31 37 36 33
52 48 45 42 35 28 21 16 12 9 8 11 15 18 20 19 17 15 14 12 13 12 8 6 11 15 16 14 12 11 14 16 16 21 25 27 27 25 30 33 40 39 38
52 52 53 50 50 39 28 21 15 12 13 15 19 20 19 18 17 15 13 12 12 13 15 15 12 11 16 21 22 20 20 19 16 13 18 26 32 38 40 39 41 43 40
53 54 52 51 48 40 32 26 20 16 16 18 21 21 20 19 18 17 16 13 12 13 14 15 15 14 13 14 20 28 27 24 22 22 24 25 34 39 46 48 42 43 45
56 55 56 53 47 41 36 30 23 21 21 22 22 22 21 21 19 17 15 14 13 14 16 19 22 24 23 22 19 21 28 34 33 34 35 36 39 40 42 41 45 45 48
62 56 58 56 49 44 39 33 26 26 26 26 25 24 22 21 19 18 15 14 17 19 21 23 24 26 26 26 25 23 25 28 36 44 46 46 47 51 49 48 46 54 55
63 62 59 58 53 49 43 35 30 29 28 28 27 25 24 22 18 14 13 13 16 19 23 25 28 31 32 35 37 36 33 31 32 37 43 52 55 55 59 57 52 50 58
69 65 63 60 56 52 46 38 34 32 30 29 27 24 23 20 16 14 13 15 17 21 26 29 33 36 37 38 41 42 43 41 39 38 42 48 54 59 58 56 56 55 65
73 68 64 60 57 54 48 41 37 34 32 30 27 23 21 17 13 13 13 14 17 23 26 27 31 32 37 37 42 47 50 41 36 49 45 53 60 58 64 63 58 57 66
78 76 71 68 63 59 52 44 40 36 33 31 27 23 20 15 13 12 13 14 19 25 26 29 33 35 40 42 51 62 58 26 64 21 49 53 59 67 67 68 66 63 55
87 83 77 71 67 61 52 46 41 37 35 31 26 23 21 17 16 13 13 15 19 25 25 29 32 38 44 41 49 54 41 69 45 78 66 70 61 64 68 62 67 65 62
96 91 82 75 71 63 56 50 45 41 36 31 25 23 21 20 17 15 14 18 24 24 26 29 31 34 44 40 45 44 35 30 87 73 71 75 78 68 68 61 60 64 71
100 88 80 74 71 67 62 55 47 41 35 28 24 22 22 20 17 16 18 24 25 25 26 29 33 36 35 44 50 45 48 54 65 81 88 85 82 76 73 70 68 68 78
99 87 79 74 71 68 63 55 48 42 33 29 24 23 21 18 19 19 24 27 25 25 28 32 33 40 44 46 43 51 59 60 64 59 82 84 85 76 89 87 90 76 70
98 86 78 73 71 67 64 58 51 43 35 30 25 22 20 20 21 23 28 27 26 25 28 31 41 42 43 43 47 52 53 61 67 67 73 79 81 108 96 89 77 64 59
Wind_Direction_850mb
103 75 58 26 26 36 41 48 62 83 68 78 74 62 56 56 56 54 54 58 56 56 60 65 54 71 72 95 91 84 80 93 107 119 127 138 141 139 129 124 120 120 115
134 103 65 38 26 46 47 58 66 77 71 71 71 67 60 58 58 54 49 45 47 49 56 55 57 83 68 78 83 79 85 100 110 123 135 139 140 136 135 132 124 126 116
132 82 78 66 65 80 79 85 85 84 77 72 68 64 61 59 60 60 60 58 52 45 40 40 48 70 87 71 78 83 94 105 116 124 131 130 130 131 133 141 135 135 120
94 125 86 82 97 100 102 102 98 94 87 81 77 74 69 67 65 63 61 62 63 56 52 49 44 47 76 88 96 84 101 117 122 130 134 131 131 143 148 152 152 129 131
34 113 96 108 110 108 109 102 96 89 83 78 75 72 69 65 63 59 56 54 56 60 56 54 58 51 44 45 114 123 107 139 137 144 150 148 161 177 191 175 195 223 269
278 136 128 125 124 119 112 105 102 99 96 92 89 83 75 70 64 61 61 57 51 50 50 51 54 60 45 27 5 231 177 173 174 176 173 176 209 224 222 205 230 275 284
192 149 134 130 129 127 124 119 113 106 96 87 81 77 71 69 65 54 58 57 58 50 47 50 38 47 286 285 281 245 225 213 213 219 218 214 230 243 253 238 259 280 283
149 143 148 146 143 139 134 125 119 107 93 83 77 62 59 47 45 36 36 48 47 51 49 44 55 304 270 260 263 258 259 252 243 252 255 257 246 243 256 260 277 277 282
150 145 151 149 150 144 142 142 132 121 105 86 61 50 28 25 10 4 0 357 356 355 317 5 24 11 287 258 266 270 263 265 252 252 259 262 256 251 257 264 271 282 286
161 162 158 156 159 166 164 160 143 118 95 72 33 4 352 336 328 326 323 322 314 291 290 308 309 51 42 215 247 277 288 293 266 252 254 272 257 254 263 263 277 284 289
178 182 182 174 175 178 175 176 171 139 78 28 32 37 28 14 347 322 318 308 304 295 297 307 307 314 332 339 205 170 277 286 292 264 269 274 258 251 261 259 274 275 290
190 195 200 191 187 188 189 197 210 252 323 356 13 14 16 17 10 11 0 352 333 288 273 278 272 283 304 297 265 216 225 274 287 291 280 283 269 245 252 263 252 279 279
201 200 201 210 212 209 211 221 233 269 313 345 357 2 1 355 355 357 358 354 352 353 345 307 287 277 269 268 267 264 250 245 264 284 286 290 273 262 250 278 254 270 275
212 211 209 209 218 222 223 230 245 281 311 329 342 346 342 337 341 342 345 347 350 350 352 349 345 322 294 287 283 276 277 285 276 274 282 281 280 260 269 279 263 257 266
218 221 216 214 214 217 222 231 249 275 294 313 325 325 324 327 331 337 336 337 340 342 341 341 341 338 324 303 283 279 277 275 270 259 260 260 265 276 278 277 253 253 260
222 224 221 216 215 217 223 233 250 271 289 303 308 306 311 318 320 318 316 323 333 340 345 345 343 340 338 330 318 300 285 274 266 264 260 260 259 265 276 277 255 255 256
225 222 220 220 220 222 226 234 247 267 281 291 295 298 305 310 310 307 314 328 340 344 345 344 343 339 333 328 319 307 298 288 276 267 264 267 267 263 262 265 271 253 254
225 223 221 223 226 228 231 236 247 263 275 283 289 299 306 308 305 309 322 330 335 338 341 343 342 343 341 335 330 325 317 304 295 290 282 268 266 265 266 260 263 257 252
226 225 223 225 227 230 233 239 251 263 271 276 284 294 302 304 307 318 324 331 339 347 347 347 347 346 345 340 338 335 327 320 310 301 294 284 270 265 264 265 259 256 248
226 225 228 230 230 230 233 240 250 259 266 272 278 287 289 298 298 308 315 324 337 346 344 343 342 344 343 343 340 336 335 339 330 321 304 291 287 278 268 262 263 255 255
225 224 224 228 229 230 232 237 247 256 262 265 271 279 281 291 288 295 304 327 339 336 336 339 336 340 346 345 342 338 342 332 336 337 314 300 289 286 279 270 263 262 260
226 226 227 230 231 232 234 240 247 253 256 258 265 272 279 282 278 293 313 325 324 320 327 331 335 334 336 340 340 342 339 329 324 329 323 319 311 296 292 284 271 263 254
227 229 231 232 233 234 237 239 244 247 251 253 261 269 275 270 275 285 297 304 304 307 315 320 325 324 324 328 330 331 334 318 323 322 317 315 317 306 296 299 285 267 253
228 229 232 233 234 235 235 238 242 248 250 253 260 265 261 261 266 269 280 290 296 304 310 312 313 317 319 315 315 317 313 313 313 311 313 311 310 305 301 295 302 287 262
228 227 229 230 233 234 234 237 241 245 245 250 255 257 257 253 257 269 282 294 296 299 303 307 316 312 307 306 310 312 312 310 310 305 301 307 311 304 301 301 301 293 274
227 224 225 227 230 233 232 235 240 242 244 250 256 259 256 255 263 278 290 296 300 302 309 318 315 318 318 313 310 307 305 305 305 305 300 301 302 304 300 299 297 288 277